This demonstration page uses our WeatherBlox Daily Observations layout. Learn more.

Left ArrowRight Arrow

Hourly Observations for April 7, 2021

Temp ( °F °C ) Dew Point ( °F °C ) Humidity (%) Winds ( mph kmh ) Pressure ( in mb ) Visibility ( mi km ) Precip ( " mm )
12:15 am 00:15 Cloudy 41 5.1 37 2.5 83 83 NNW 24 39 29.76 1008 10 16.0934 0 0
12:35 am 00:35 Cloudy 41 5 37 2.5 84 84 NNW 18 30 29.76 1008 10 16.0934 0 0
12:55 am 00:55 Cloudy 41 5.1 36 2.2 82 82 N 20 31 29.75 1007 10 16.0934 0 0
1:15 am 01:15 Cloudy 42 5.5 36 2.3 80 80 NNW 18 30 29.76 1008 10 16.0934 0 0
1:35 am 01:35 Cloudy 42 5.5 36 2 78 78 NNW 15 24 29.76 1008 10 16.0934 0 0
1:55 am 01:55 Cloudy 42 5.5 36 2.3 80 80 NNW 20 31 29.75 1008 10 16.0934 0 0
2:15 am 02:15 Cloudy 42 5.3 36 2.1 80 80 NNW 21 33 29.76 1008 10 16.0934 0 0
2:35 am 02:35 Cloudy 41 5 36 2.1 82 82 NNW 21 33 29.77 1008 10 16.0934 0 0
2:55 am 02:55 Cloudy 40 4.7 36 2.2 84 84 NNW 21 33 29.77 1008 10 16.0934 0 0
3:15 am 03:15 Cloudy with Mist and Fog 40 4.2 36 2.3 88 88 NNW 22 35 29.76 1008 5 8.0467 0 0
3:35 am 03:35 Cloudy with Light Rain 39 4 37 2.5 90 90 NNW 21 33 29.76 1008 4 6.43736 0 0
3:55 am 03:55 Cloudy 39 3.8 36 2.3 90 90 NNW 18 30 29.75 1007 7 11.26538 0 0
4:15 am 04:15 Cloudy 39 4 36 2.3 89 89 NNW 21 33 29.75 1007 10 16.0934 0 0
4:35 am 04:35 Cloudy 39 4 36 2 87 87 NNW 25 41 29.75 1007 10 16.0934 0 0
4:55 am 04:55 Cloudy 39 4 36 2 87 87 NNW 25 41 29.75 1007 10 16.0934 0 0
5:15 am 05:15 Cloudy 39 4 35 1.8 86 86 N 25 41 29.73 1007 10 16.0934 0 0
5:35 am 05:35 Cloudy 39 4 35 1.8 86 86 N 25 41 29.72 1006 10 16.0934 0 0
5:55 am 05:55 Cloudy 39 4 35 1.7 85 85 N 26 43 29.74 1007 10 16.0934 0 0
6:15 am 06:15 Cloudy 39 4 35 1.6 85 85 NNW 26 43 29.75 1007 10 16.0934 0 0
6:35 am 06:35 Cloudy 39 4 35 1.5 84 84 N 20 31 29.76 1008 10 16.0934 0 0
6:55 am 06:55 Cloudy 39 4.1 35 1.5 83 83 N 18 30 29.78 1008 10 16.0934 0 0
7:15 am 07:15 Cloudy 40 4.2 35 1.6 83 83 NNW 23 37 29.78 1009 10 16.0934 0 0
7:35 am 07:35 Cloudy 40 4.3 35 1.6 83 83 NNW 21 33 29.77 1008 10 16.0934 0 0
7:55 am 07:55 Cloudy 40 4.3 35 1.7 83 83 N 17 28 29.77 1008 10 16.0934 0 0
8:15 am 08:15 Cloudy 40 4.5 35 1.8 83 83 NNW 22 35 29.77 1008 10 16.0934 0 0
8:35 am 08:35 Cloudy 40 4.6 36 2 83 83 NNW 23 37 29.77 1008 10 16.0934 0 0
8:55 am 08:55 Cloudy 40 4.6 35 1.7 82 82 NNW 23 37 29.77 1008 10 16.0934 0 0
9:15 am 09:15 Cloudy 41 4.8 35 1.5 79 79 NNW 26 43 29.77 1008 10 16.0934 0 0
9:35 am 09:35 Cloudy 41 5.1 34 1.3 77 77 NNW 25 41 29.76 1008 10 16.0934 0 0
9:55 am 09:55 Cloudy 41 5.2 35 1.4 77 77 NNW 23 37 29.77 1008 10 16.0934 0 0
10:15 am 10:15 Cloudy 41 5.2 35 1.4 77 77 N 26 43 29.79 1009 10 16.0934 0 0
10:35 am 10:35 Cloudy 42 5.4 35 1.4 76 76 NNW 25 41 29.77 1008 10 16.0934 0 0
10:55 am 10:55 Cloudy 42 5.5 34 1.2 74 74 NNW 28 44 29.77 1008 10 16.0934 0 0
11:15 am 11:15 Cloudy 42 5.6 34 1.2 74 74 N 25 41 29.77 1008 10 16.0934 0 0
11:35 am 11:35 Cloudy 42 5.7 34 1.3 74 74 N 29 46 29.78 1009 10 16.0934 0 0
11:55 am 11:55 Cloudy 42 5.8 35 1.5 74 74 NNW 20 31 29.78 1008 10 16.0934 0 0
12:15 pm 12:15 Cloudy with Drizzle 42 5.8 35 1.5 74 74 NNW 29 46 29.77 1008 10 16.0934 0 0
12:35 pm 12:35 Cloudy 42 5.8 35 1.6 75 75 NNW 26 43 29.77 1008 10 16.0934 0 0
12:55 pm 12:55 Cloudy 42 5.8 35 1.8 76 76 NNW 28 44 29.76 1008 10 16.0934 0 0
1:15 pm 13:15 Cloudy 43 6.1 35 1.9 75 75 NNW 29 46 29.75 1007 10 16.0934 0 0
1:35 pm 13:35 Cloudy 43 6 35 1.7 74 74 NNW 29 46 29.76 1008 10 16.0934 0 0
1:55 pm 13:55 Cloudy with Drizzle 42 5.7 36 2.1 78 78 NNW 25 41 29.76 1008 7 11.26538 0 0
2:15 pm 14:15 Cloudy with Drizzle 42 5.5 37 2.8 83 83 NNW 28 44 29.77 1008 7 11.26538 0 0
2:35 pm 14:35 Cloudy with Rain 41 5.1 37 3 86 86 NNW 23 37 29.77 1008 5 8.0467 0 0
2:55 pm 14:55 Cloudy with Light Rain 41 5.1 38 3.4 89 89 NNW 24 39 29.77 1008 4 6.43736 0 0
3:15 pm 15:15 Cloudy with Rain 41 5 38 3.3 89 89 NNW 25 41 29.77 1008 3 4.82802 0.02 0.508
3:35 pm 15:35 Cloudy with Light Rain 41 5 38 3.3 89 89 NNW 23 37 29.77 1008 7 11.26538 0.05 1.27
3:55 pm 15:55 Cloudy with Rain 41 5.1 38 3.4 89 89 N 26 43 29.76 1008 5 8.0467 0.06 1.524
4:15 pm 16:15 Cloudy with Light Rain 42 5.5 38 3.3 86 86 N 23 37 29.75 1008 10 16.0934 0 0
4:35 pm 16:35 Cloudy with Drizzle 42 5.5 38 3.3 86 86 NNW 18 30 29.76 1008 10 16.0934 0 0
4:55 pm 16:55 Cloudy 43 6 37 3 81 81 NNW 25 41 29.76 1008 10 16.0934 0 0
5:15 pm 17:15 Cloudy 43 6 38 3.1 82 82 NNW 24 39 29.75 1007 10 16.0934 0 0
5:35 pm 17:35 Cloudy 43 6.2 37 2.5 77 77 N 24 39 29.76 1008 10 16.0934 0 0
5:55 pm 17:55 Cloudy 43 6.3 37 2.5 77 77 N 22 35 29.76 1008 10 16.0934 0 0
6:15 pm 18:15 Cloudy 44 6.5 37 2.5 76 76 N 28 44 29.75 1008 10 16.0934 0 0
6:35 pm 18:35 Cloudy 43 6.3 37 2.6 77 77 NNW 23 37 29.76 1008 10 16.0934 0 0
6:55 pm 18:55 Cloudy with Drizzle 43 6.2 37 2.5 77 77 NNW 23 37 29.77 1008 10 16.0934 0 0
7:15 pm 19:15 Cloudy 44 6.5 37 2.5 76 76 NNW 20 31 29.77 1008 10 16.0934 0 0
7:35 pm 19:35 Cloudy 44 6.7 36 2.1 73 73 NNW 18 30 29.77 1008 10 16.0934 0 0
7:55 pm 19:55 Cloudy 44 6.7 36 2 72 72 NNW 21 33 29.76 1008 10 16.0934 0 0
8:15 pm 20:15 Cloudy 45 7 35 1.4 68 68 NNW 24 39 29.75 1007 10 16.0934 0 0
8:35 pm 20:35 Cloudy 45 7.2 33 0.8 64 64 NNW 21 33 29.75 1007 10 16.0934 0 0
8:55 pm 20:55 Cloudy 46 7.5 33 0.6 62 62 NNW 22 35 29.76 1008 10 16.0934 0 0
9:15 pm 21:15 Cloudy 45 7.2 34 1.2 66 66 NNW 20 31 29.77 1008 10 16.0934 0 0
9:35 pm 21:35 Cloudy 45 7.3 35 1.5 67 67 N 23 37 29.77 1008 10 16.0934 0 0
9:55 pm 21:55 Cloudy 45 7.1 35 1.6 68 68 NNW 20 31 29.77 1008 10 16.0934 0 0
10:15 pm 22:15 Cloudy 45 7.2 35 1.5 67 67 N 22 35 29.78 1008 10 16.0934 0 0
10:35 pm 22:35 Cloudy 45 7.1 35 1.5 68 68 NNW 18 30 29.78 1008 10 16.0934 0 0
10:55 pm 22:55 Cloudy 45 7.1 36 2.4 72 72 NNW 15 24 29.78 1008 10 16.0934 0 0
11:15 pm 23:15 Cloudy 45 7.1 38 3.2 76 76 NNW 23 37 29.76 1008 10 16.0934 0 0
11:35 pm 23:35 Cloudy 45 7.3 38 3.1 75 75 NNW 23 37 29.76 1008 10 16.0934 0 0
11:55 pm 23:55 Cloudy 45 7.1 38 3.1 76 76 N 21 33 29.76 1008 10 16.0934 0 0

Powered by AerisWeather